Vereeniging, South Africa

9:47 PM SAST on March 30, 2017 (GMT +0200)
Vereeniging

Weather History for FAVV - August, 2013

Change the Weather History Date:

Tuesday, August 6, 2013

  Actual Average Record
Temperature  
Mean Temperature 49 °F -  
Max Temperature 66 °F - - ()
Min Temperature 32 °F - - ()
Degree Days  
Heating Degree Days 16    
Moisture  
Dew Point 29 °F    
Average Humidity 46    
Maximum Humidity 80    
Minimum Humidity 13    
Precipitation  
Precipitation 0.00 in - - ()
Sea Level Pressure  
Sea Level Pressure 30.20 in    
Wind  
Wind Speed 5 mph ()    
Max Wind Speed 12 mph    
Max Gust Speed 20 mph    
T = Trace of Precipitation, MM = Missing Value Source: Averaged Metar Reports

Daily Weather History Graph

Daily Weather History Graph

Search for Another Location

Airport or City:

Trip Planner

Search our weather history database for the weather conditions in past years. The results will help you decide how hot, cold, wet, or windy it might be!

Date:

Astronomy

Aug. 06, 2013 Rise Set
Actual Time 6:43 AM SAST 5:45 PM SAST
Civil Twilight 6:19 AM SAST 6:09 PM SAST
Nautical Twilight 5:51 AM SAST 6:36 PM SAST
Astronomical Twilight 5:24 AM SAST 7:03 PM SAST
Moon 6:02 AM SAST (8/6) 5:31 PM SAST (8/6)
Length of Visible Light 11h 50m
Length of Day
11h 02m
Waning Crescent, 0% of the Moon is Illuminated
Aug 6
Waning Crescent
Aug 6
New
Aug 14
First Quarter
Aug 21
Full
Aug 28
Last Quarter

Hourly Weather History & Observations

Time (SAST) Temp. Windchill Dew Point Humidity Pressure Visibility Wind Dir Wind Speed Gust Speed Precip Events Conditions
12:00 AM 39.2 °F 37.0 °F 26.6 °F 61% 30.24 in - NW 3.5 mph - N/A   Unknown
1:00 AM 41.0 °F 39.0 °F 28.4 °F 61% 30.24 in - North 3.5 mph - N/A   Unknown
2:00 AM 40 °F - 27 °F 48%  in - North 4.6 mph - -  
2:00 AM 39.2 °F 37.0 °F 28.4 °F 65% 30.24 in - North 3.5 mph - N/A   Unknown
3:00 AM 37.4 °F 31.4 °F 28.4 °F 70% 30.24 in - NW 8.1 mph 19.6 mph N/A   Unknown
4:00 AM 41.0 °F 39.0 °F 28.4 °F 61% 30.21 in - NW 3.5 mph - N/A   Unknown
5:00 AM 35.6 °F 27.5 °F 28.4 °F 75% 30.21 in - North 11.5 mph - N/A   Unknown
6:00 AM 35.6 °F 32.8 °F 28.4 °F 75% 30.24 in - WNW 3.5 mph - N/A   Unknown
7:00 AM 32.0 °F 28.7 °F 26.6 °F 80% 30.24 in - North 3.5 mph - N/A   Unknown
8:00 AM 44 °F - 32 °F 52%  in - NE 4.6 mph - -  
8:00 AM 42.8 °F 41.1 °F 32.0 °F 66% 30.24 in - NE 3.5 mph - N/A   Unknown
9:00 AM 53.6 °F - 32.0 °F 44% 30.24 in - ENE 3.5 mph - N/A   Unknown
10:00 AM 59.0 °F - 28.4 °F 31% 30.27 in - NW 8.1 mph - N/A   Unknown
11:00 AM 60.8 °F - 24.8 °F 25% 30.24 in - NW 6.9 mph - N/A   Unknown
12:00 PM 62.6 °F - 26.6 °F 26% 30.21 in - NW 6.9 mph - N/A   Unknown
1:00 PM 62.6 °F - 28.4 °F 27% 30.18 in - West 5.8 mph - N/A   Unknown
2:00 PM 65 °F - 26 °F 13%  in - NNW 9.2 mph - -  
2:00 PM 64.4 °F - 26.6 °F 24% 30.15 in - NNW 9.2 mph - N/A   Unknown
3:00 PM 64.4 °F - 30.2 °F 28% 30.12 in - NW 5.8 mph - N/A   Unknown
4:00 PM 64.4 °F - 28.4 °F 26% 30.12 in - NW 5.8 mph - N/A   Unknown
5:00 PM 60.8 °F - 28.4 °F 29% 30.12 in - NW 5.8 mph - N/A   Unknown
6:00 PM 57.2 °F - 30.2 °F 36% 30.15 in - NNW 8.1 mph - N/A   Unknown
7:00 PM 51.8 °F - 30.2 °F 44% 30.15 in - NNW 6.9 mph - N/A   Unknown
8:00 PM 52 °F - 30 °F 30%  in - NNW 6.9 mph - -  
8:00 PM 50.0 °F - 30.2 °F 47% 30.15 in - NNW 6.9 mph - N/A   Unknown
9:00 PM 50.0 °F - 32.0 °F 50% 30.18 in - NW 6.9 mph - N/A   Unknown
10:00 PM 48.2 °F - 32.0 °F 54% 30.15 in - NNW 6.9 mph - N/A   Unknown
11:00 PM 48.2 °F - 32.0 °F 54% 30.15 in - NNW 6.9 mph - N/A   Unknown